Tracking 25693 objects as of 1-Jul-2022
HD Live streaming from Space Station
objects crossing your sky now

DELTA 1 DEB

Track DELTA 1 DEB now!
10-day predictions


NORAD ID: 13564
Int'l Code: 1978-026FB
Perigee: 798.8 km
Apogee: 1,098.2 km
Inclination: 98.7 °
Period: 103.9 minutes
Semi major axis: 7319 km
RCS: 0.0124 m2 (small)
Launch date: March 5, 1978
Source: United States (US)
Launch site: AIR FORCE WESTERN TEST RANGE (AFWTR)

Note: This is SATELLITE DEBRIS
aabbcc
Your satellite tracking list
Your tracking list is empty




NASA's NSSDC Master Catalog

Two Line Element Set (TLE):
1 13564U 78026FB  22181.52028562  .00000142  00000-0  13492-3 0  9995
2 13564  98.7349 178.9183 0204506 300.9159 180.9648 13.86376023 19973
Source of the keplerian elements: AFSPC